TimeCDT,TemperatureF,Dew PointF,Humidity,Sea Level PressureIn,VisibilityMPH,Wind Direction,Wind SpeedMPH,Gust SpeedMPH,PrecipitationIn,Events,Conditions,WindDirDegrees,DateUTC
12:53 AM,59.0,51.1,75,29.48,10.0,WNW,10.4,-,0.00,Rain,Light Rain,290,2013-10-01 05:53:00
1:53 AM,55.9,53.1,90,29.50,10.0,West,9.2,-,0.00,Rain,Light Rain,280,2013-10-01 06:53:00
2:53 AM,54.0,51.1,90,29.52,10.0,West,9.2,-,0.00,,Clear,260,2013-10-01 07:53:00
3:53 AM,53.1,48.9,86,29.54,10.0,WSW,11.5,-,N/A,,Clear,250,2013-10-01 08:53:00
4:53 AM,50.0,46.0,86,29.55,10.0,WSW,8.1,-,N/A,,Clear,250,2013-10-01 09:53:00
5:53 AM,48.9,44.1,83,29.59,10.0,SSW,10.4,-,N/A,,Clear,210,2013-10-01 10:53:00
6:53 AM,46.9,42.1,83,29.61,10.0,SSW,9.2,-,N/A,,Clear,210,2013-10-01 11:53:00
7:53 AM,48.0,39.9,74,29.63,10.0,WSW,9.2,-,N/A,,Clear,240,2013-10-01 12:53:00
8:53 AM,53.1,41.0,64,29.66,10.0,WSW,12.7,-,N/A,,Clear,250,2013-10-01 13:53:00
9:53 AM,57.0,41.0,55,29.68,10.0,West,16.1,23.0,N/A,,Clear,260,2013-10-01 14:53:00
10:53 AM,61.0,39.9,46,29.70,10.0,West,17.3,26.5,N/A,,Clear,270,2013-10-01 15:53:00
11:53 AM,63.0,39.0,41,29.70,10.0,West,20.7,29.9,N/A,,Clear,260,2013-10-01 16:53:00
12:53 PM,66.0,37.9,36,29.72,10.0,West,20.7,29.9,N/A,,Clear,270,2013-10-01 17:53:00
1:53 PM,68.0,37.0,32,29.72,10.0,WSW,23.0,31.1,N/A,,Clear,250,2013-10-01 18:53:00
2:53 PM,69.1,33.1,26,29.73,10.0,West,21.9,34.5,N/A,,Clear,270,2013-10-01 19:53:00
3:53 PM,69.1,32.0,25,29.73,10.0,West,26.5,35.7,N/A,,Clear,260,2013-10-01 20:53:00
4:53 PM,69.1,30.0,23,29.75,10.0,West,20.7,32.2,N/A,,Clear,270,2013-10-01 21:53:00
5:53 PM,66.9,30.9,26,29.77,10.0,West,19.6,25.3,N/A,,Clear,280,2013-10-01 22:53:00
6:53 PM,63.0,32.0,31,29.79,10.0,West,11.5,-,N/A,,Clear,270,2013-10-01 23:53:00
7:53 PM,55.0,34.0,45,29.81,10.0,West,3.5,-,N/A,,Clear,260,2013-10-02 00:53:00
8:53 PM,52.0,36.0,54,29.83,10.0,WSW,4.6,-,N/A,,Clear,240,2013-10-02 01:53:00
9:53 PM,51.1,37.0,59,29.84,10.0,WSW,8.1,-,N/A,,Clear,240,2013-10-02 02:53:00
10:53 PM,45.0,37.0,74,29.86,10.0,SSW,8.1,-,N/A,,Clear,200,2013-10-02 03:53:00
11:53 PM,51.1,37.0,59,29.87,10.0,SW,9.2,-,N/A,,Clear,230,2013-10-02 04:53:00